C31FR-13 Weather Reports


Display with metric or nautical units.
time (UTC)temp
F
wind
direction
speed
MPH
gust
MPH
rain 1hr
in
rain 24hr
in
rain mn
in
humidity
%
barometer
mb
20260508193102 57 0.0 0.0 0.00 0.00 0.00 57 1014.6
20260508192603 57 0.0 0.0 0.00 0.00 0.00 57 1014.5
20260508192102 57 0.0 0.0 0.00 0.00 0.00 57 1014.4
20260508191602 58 0.0 0.0 0.00 0.00 0.00 57 1014.4
20260508191103 58 0.0 0.0 0.00 0.00 0.00 56 1014.3
20260508190103 58 0.0 0.0 0.00 0.00 0.00 56 1014.1
20260508185602 58 0.0 0.0 0.00 0.00 0.00 55 1014.0
20260508185103 58 0.0 0.0 0.00 0.00 0.00 53 1014.1
20260508184602 58 0.0 0.0 0.00 0.00 0.00 53 1014.1
20260508184103 58 0.0 0.0 0.00 0.00 0.00 53 1014.1
20260508183602 58 0.0 0.0 0.00 0.00 0.00 52 1014.0
20260508182603 59 0.0 0.0 0.00 0.00 0.00 51 1013.8
20260508182102 59 0.0 0.0 0.00 0.00 0.00 50 1013.6
20260508181603 59 0.0 0.0 0.00 0.00 0.00 49 1013.5
20260508181102 59 0.0 0.0 0.00 0.00 0.00 49 1013.4
20260508180602 59 0.0 0.0 0.00 0.00 0.00 48 1013.3
20260508175602 60 0.0 0.0 0.00 0.00 0.00 47 1013.1
20260508175102 59 0.0 0.0 0.00 0.00 0.00 47 1013.1
20260508174602 59 0.0 0.0 0.00 0.00 0.00 47 1013.1
20260508174102 60 0.0 0.0 0.00 0.00 0.00 46 1013.1
20260508173602 60 0.0 0.0 0.00 0.00 0.00 45 1013.0
20260508173102 60 0.0 0.0 0.00 0.00 0.00 46 1013.0
20260508172603 60 0.0 0.0 0.00 0.00 0.00 45 1013.0
20260508172102 60 0.0 0.0 0.00 0.00 0.00 45 1012.9
20260508171103 62 0.0 0.0 0.00 0.00 0.00 43 1012.9
20260508170602 61 0.0 0.0 0.00 0.00 0.00 43 1012.8
20260508165602 61 0.0 0.0 0.00 0.00 0.00 45 1012.9
20260508165103 61 0.0 0.0 0.00 0.00 0.00 45 1012.8
20260508164602 61 0.0 0.0 0.00 0.00 0.00 46 1012.9
20260508164102 62 0.0 0.0 0.00 0.00 0.00 46 1012.9
20260508163602 61 0.0 0.0 0.00 0.00 0.00 46 1012.9
20260508163103 61 0.0 0.0 0.00 0.00 0.00 45 1012.9
20260508162603 62 0.0 0.0 0.00 0.00 0.00 45 1012.9
20260508162102 62 0.0 0.0 0.00 0.00 0.00 45 1012.8
20260508161102 62 0.0 0.0 0.00 0.00 0.00 45 1012.9
20260508160602 61 0.0 0.0 0.00 0.00 0.00 47 1012.9
20260508155602 62 0.0 0.0 0.00 0.00 0.00 46 1012.9
20260508155102 61 0.0 0.0 0.00 0.00 0.00 47 1013.0
20260508154602 61 0.0 0.0 0.00 0.00 0.00 47 1013.0
20260508154102 60 0.0 0.0 0.00 0.00 0.00 49 1013.0
20260508153602 60 0.0 0.0 0.00 0.00 0.00 47 1013.1
20260508153103 60 0.0 0.0 0.00 0.00 0.00 47 1013.1
20260508152602 60 0.0 0.0 0.00 0.00 0.00 47 1013.3
20260508152103 60 0.0 0.0 0.00 0.00 0.00 48 1013.2
20260508151603 59 0.0 0.0 0.00 0.00 0.00 49 1013.4
20260508151102 59 0.0 0.0 0.00 0.00 0.00 50 1013.5
20260508150603 59 0.0 0.0 0.00 0.00 0.00 50 1013.5
20260508145602 58 0.0 0.0 0.00 0.00 0.00 50 1013.7
20260508145103 59 0.0 0.0 0.00 0.00 0.00 49 1013.8
20260508144602 58 0.0 0.0 0.00 0.00 0.00 49 1014.0
20260508143602 58 0.0 0.0 0.00 0.00 0.00 50 1014.0
20260508143102 59 0.0 0.0 0.00 0.00 0.00 49 1014.0
20260508142602 59 0.0 0.0 0.00 0.00 0.00 47 1014.0
20260508142102 60 0.0 0.0 0.00 0.00 0.00 48 1013.9
20260508141602 61 0.0 0.0 0.00 0.00 0.00 51 1013.9
20260508141103 61 0.0 0.0 0.00 0.00 0.00 51 1013.8
20260508140603 59 0.0 0.0 0.00 0.00 0.00 47 1013.8
20260508135602 60 0.0 0.0 0.00 0.00 0.00 45 1013.7
20260508135103 61 0.0 0.0 0.00 0.00 0.00 45 1013.6
20260508134102 60 0.0 0.0 0.00 0.00 0.00 47 1013.6
20260508133603 60 0.0 0.0 0.00 0.00 0.00 47 1013.5
20260508133102 60 0.0 0.0 0.00 0.00 0.00 47 1013.6
20260508132603 60 0.0 0.0 0.00 0.00 0.00 48 1013.5
20260508131602 60 0.0 0.0 0.00 0.00 0.00 46 1013.6
20260508131102 61 0.0 0.0 0.00 0.00 0.00 46 1013.6
20260508130603 60 0.0 0.0 0.00 0.00 0.00 46 1013.5
20260508125603 60 0.0 0.0 0.00 0.00 0.00 45 1013.5
20260508125102 60 0.0 0.0 0.00 0.00 0.00 47 1013.6
20260508124602 59 0.0 0.0 0.00 0.00 0.00 48 1013.6
20260508124103 59 0.0 0.0 0.00 0.00 0.00 49 1013.6
20260508123601 58 0.0 0.0 0.00 0.00 0.00 50 1013.7
20260508123102 59 0.0 0.0 0.00 0.00 0.00 51 1013.5
20260508122603 59 0.0 0.0 0.00 0.00 0.00 50 1013.4
20260508121602 59 0.0 0.0 0.00 0.00 0.00 49 1013.3
20260508121103 59 0.0 0.0 0.00 0.00 0.00 50 1013.2
20260508120603 60 0.0 0.0 0.00 0.00 0.00 51 1013.2
20260508115602 59 0.0 0.0 0.00 0.00 0.00 53 1013.3
20260508115103 58 0.0 0.0 0.00 0.00 0.00 53 1013.5
20260508114103 58 0.0 0.0 0.00 0.00 0.00 55 1013.7
20260508113602 58 0.0 0.0 0.00 0.00 0.00 54 1013.7
20260508113103 58 0.0 0.0 0.00 0.00 0.00 53 1013.7
20260508112602 58 0.0 0.0 0.00 0.00 0.00 54 1013.7
20260508112102 58 0.0 0.0 0.00 0.00 0.00 51 1013.7
20260508111602 58 0.0 0.0 0.00 0.00 0.00 51 1013.8
20260508110602 58 0.0 0.0 0.00 0.00 0.00 54 1014.0
20260508105603 57 0.0 0.0 0.00 0.00 0.00 53 1014.2
20260508105103 57 0.0 0.0 0.00 0.00 0.00 52 1014.3
20260508104602 57 0.0 0.0 0.00 0.00 0.00 52 1014.2
20260508104102 57 0.0 0.0 0.00 0.00 0.00 51 1014.1
20260508103603 57 0.0 0.0 0.00 0.00 0.00 49 1014.1
20260508103103 57 0.0 0.0 0.00 0.00 0.00 48 1014.1
20260508102603 56 0.0 0.0 0.00 0.00 0.00 52 1014.1
20260508102103 57 0.0 0.0 0.00 0.00 0.00 46 1014.1
20260508101602 56 0.0 0.0 0.00 0.00 0.00 52 1014.1
20260508101102 56 0.0 0.0 0.00 0.00 0.00 56 1014.1
20260508100602 56 0.0 0.0 0.00 0.00 0.00 60 1014.1
20260508100103 55 0.0 0.0 0.00 0.00 0.00 64 1013.9
20260508095602 55 0.0 0.0 0.00 0.00 0.00 65 1013.9
20260508095103 54 0.0 0.0 0.00 0.00 0.00 65 1013.8
20260508094602 54 0.0 0.0 0.00 0.00 0.00 66 1013.8
20260508094102 54 0.0 0.0 0.00 0.00 0.00 64 1013.9
20260508093602 54 0.0 0.0 0.00 0.00 0.00 65 1013.9
20260508093102 53 0.0 0.0 0.00 0.00 0.00 67 1013.9
20260508092603 53 0.0 0.0 0.00 0.00 0.00 69 1013.8
20260508092103 53 0.0 0.0 0.00 0.00 0.00 70 1013.8
20260508091102 53 0.0 0.0 0.00 0.00 0.00 70 1013.7
20260508090603 53 0.0 0.0 0.00 0.00 0.00 69 1013.7
20260508085602 53 0.0 0.0 0.00 0.00 0.00 66 1013.7
20260508085103 53 0.0 0.0 0.00 0.00 0.00 66 1013.7
20260508084602 53 0.0 0.0 0.00 0.00 0.00 62 1013.8
20260508084102 53 0.0 0.0 0.00 0.00 0.00 61 1013.8
20260508083602 53 0.0 0.0 0.00 0.00 0.00 61 1013.8
20260508083102 53 0.0 0.0 0.00 0.00 0.00 62 1013.9
20260508082602 53 0.0 0.0 0.00 0.00 0.00 63 1014.0
20260508082102 53 0.0 0.0 0.00 0.00 0.00 63 1014.0
20260508081603 52 0.0 0.0 0.00 0.00 0.00 64 1014.0
20260508080604 52 0.0 0.0 0.00 0.00 0.00 64 1014.0
20260508075603 52 0.0 0.0 0.00 0.00 0.00 64 1014.0
20260508075101 52 0.0 0.0 0.00 0.00 0.00 68 1014.1
20260508074602 52 0.0 0.0 0.00 0.00 0.00 67 1014.1
20260508074102 52 0.0 0.0 0.00 0.00 0.00 68 1014.2
20260508073603 51 0.0 0.0 0.00 0.00 0.00 69 1014.3
20260508073102 50 0.0 0.0 0.00 0.00 0.00 70 1014.3
20260508072602 49 0.0 0.0 0.00 0.00 0.00 71 1014.5
20260508072102 49 0.0 0.0 0.00 0.00 0.00 72 1014.5
20260508071602 49 0.0 0.0 0.00 0.00 0.00 74 1014.5
20260508071102 49 0.0 0.0 0.00 0.00 0.00 75 1014.5
20260508070602 48 0.0 0.0 0.00 0.00 0.00 75 1014.4
20260508065603 51 0.0 0.0 0.00 0.00 0.00 72 1014.2
20260508065103 50 0.0 0.0 0.00 0.00 0.00 70 1014.1
20260508064602 50 0.0 0.0 0.00 0.00 0.00 71 1014.1
20260508064102 49 0.0 0.0 0.00 0.00 0.00 73 1014.0
20260508063603 50 0.0 0.0 0.00 0.00 0.00 71 1014.1
20260508063102 49 0.0 0.0 0.00 0.00 0.00 72 1014.1
20260508062603 49 0.0 0.0 0.00 0.00 0.00 72 1014.1
20260508062103 49 0.0 0.0 0.00 0.00 0.00 71 1014.1
20260508061602 48 0.0 0.0 0.00 0.00 0.00 72 1014.1
20260508061103 48 0.0 0.0 0.00 0.00 0.00 74 1014.1
20260508060603 48 0.0 0.0 0.00 0.00 0.00 74 1014.2
20260508055603 48 0.0 0.0 0.00 0.00 0.00 75 1014.2
20260508055102 48 0.0 0.0 0.00 0.00 0.00 77 1014.2
20260508054603 48 0.0 0.0 0.00 0.00 0.00 73 1014.2
20260508054102 48 0.0 0.0 0.00 0.00 0.00 74 1014.1
20260508053603 48 0.0 0.0 0.00 0.00 0.00 77 1014.1
20260508053101 48 0.0 0.0 0.00 0.00 0.00 78 1014.1
20260508052603 47 0.0 0.0 0.00 0.00 0.00 77 1014.1
20260508052102 48 0.0 0.0 0.00 0.00 0.00 77 1014.0
20260508051602 47 0.0 0.0 0.00 0.00 0.00 79 1014.0
20260508051103 47 0.0 0.0 0.00 0.00 0.00 81 1014.0
20260508050603 47 0.0 0.0 0.00 0.00 0.00 80 1014.0
20260508045603 48 0.0 0.0 0.00 0.00 0.00 78 1013.9
20260508045102 48 0.0 0.0 0.00 0.00 0.00 77 1013.9
20260508044602 48 0.0 0.0 0.00 0.00 0.00 78 1013.9
20260508044102 48 0.0 0.0 0.00 0.00 0.00 77 1013.9
20260508043602 48 0.0 0.0 0.00 0.00 0.00 78 1013.9
20260508042602 47 0.0 0.0 0.00 0.00 0.00 80 1013.8
20260508042103 48 0.0 0.0 0.00 0.00 0.00 79 1013.8
20260508041602 48 0.0 0.0 0.00 0.00 0.00 77 1013.8
20260508041102 49 0.0 0.0 0.00 0.00 0.00 78 1013.7
20260508035602 48 0.0 0.0 0.00 0.00 0.00 80 1013.8
20260508035103 48 0.0 0.0 0.00 0.00 0.00 81 1013.8
20260508034603 48 0.0 0.0 0.00 0.00 0.00 81 1013.8
20260508034103 49 0.0 0.0 0.00 0.00 0.00 80 1013.9
20260508033603 48 0.0 0.0 0.00 0.00 0.00 82 1013.9
20260508033102 48 0.0 0.0 0.00 0.00 0.00 81 1013.9
20260508032603 48 0.0 0.0 0.00 0.00 0.00 81 1013.9
20260508031602 49 0.0 0.0 0.00 0.00 0.00 80 1014.2
20260508031103 49 0.0 0.0 0.00 0.00 0.00 80 1014.2
20260508030603 49 0.0 0.0 0.00 0.00 0.00 81 1014.3
20260508025603 49 0.0 0.0 0.00 0.00 0.00 81 1014.3
20260508025103 49 0.0 0.0 0.00 0.00 0.00 82 1014.4
20260508024603 49 0.0 0.0 0.00 0.00 0.00 80 1014.3
20260508024103 49 0.0 0.0 0.00 0.00 0.00 81 1014.4
20260508023603 49 0.0 0.0 0.00 0.00 0.00 80 1014.3
20260508023103 50 0.0 0.0 0.00 0.00 0.00 81 1014.3
20260508022603 49 0.0 0.0 0.00 0.00 0.00 80 1014.2
20260508022102 51 0.0 0.0 0.00 0.00 0.00 77 1014.1
20260508021602 50 0.0 0.0 0.00 0.00 0.00 78 1014.2
20260508021102 51 0.0 0.0 0.00 0.00 0.00 78 1014.1
20260508020602 51 0.0 0.0 0.00 0.00 0.00 78 1014.2
20260508015602 51 0.0 0.0 0.00 0.00 0.00 78 1014.2
20260508015102 51 0.0 0.0 0.00 0.00 0.00 78 1014.2
20260508014602 51 0.0 0.0 0.00 0.00 0.00 79 1014.2
20260508013602 52 0.0 0.0 0.00 0.00 0.00 78 1014.3
20260508013102 51 0.0 0.0 0.00 0.00 0.00 78 1014.3
20260508012603 51 0.0 0.0 0.00 0.00 0.00 78 1014.4
20260508012103 51 0.0 0.0 0.00 0.00 0.00 79 1014.4
20260508011602 51 0.0 0.0 0.00 0.00 0.00 79 1014.5
20260508011102 51 0.0 0.0 0.00 0.00 0.00 80 1014.5
20260508010603 51 0.0 0.0 0.00 0.00 0.00 80 1014.6
20260508005602 52 0.0 0.0 0.00 0.00 0.00 79 1014.7
20260508005103 52 0.0 0.0 0.00 0.00 0.00 79 1014.7
20260508004602 51 0.0 0.0 0.00 0.00 0.00 81 1014.7
20260508004102 52 0.0 0.0 0.00 0.00 0.00 80 1014.7
20260508003603 52 0.0 0.0 0.00 0.00 0.00 80 1014.7
20260508003103 52 0.0 0.0 0.00 0.00 0.00 80 1014.8
20260508002602 53 0.0 0.0 0.00 0.00 0.00 80 1014.9
20260508001602 53 0.0 0.0 0.00 0.00 0.00 80 1015.0
20260508001102 52 0.0 0.0 0.00 0.00 0.00 82 1015.0
20260508000603 51 0.0 0.0 0.00 0.00 0.00 83 1015.0
20260507235603 53 0.0 0.0 0.00 0.00 0.00 80 1015.1
20260507235102 53 0.0 0.0 0.00 0.00 0.00 81 1015.1
20260507234602 52 0.0 0.0 0.00 0.00 0.00 82 1015.2
20260507234103 52 0.0 0.0 0.00 0.00 0.00 84 1015.3
20260507233603 53 0.0 0.0 0.00 0.00 0.00 81 1015.3
20260507233103 53 0.0 0.0 0.00 0.00 0.00 81 1015.4
20260507232603 52 0.0 0.0 0.00 0.00 0.00 82 1015.4
20260507232102 53 0.0 0.0 0.00 0.00 0.00 80 1015.4
20260507231602 53 0.0 0.0 0.00 0.00 0.00 80 1015.4
20260507231102 52 0.0 0.0 0.00 0.00 0.00 81 1015.5
20260507230602 51 0.0 0.0 0.00 0.00 0.00 82 1015.5
20260507225603 51 0.0 0.0 0.00 0.00 0.00 81 1015.4
20260507225103 51 0.0 0.0 0.00 0.00 0.00 80 1015.5
20260507224602 51 0.0 0.0 0.00 0.00 0.00 79 1015.6
20260507224102 51 0.0 0.0 0.00 0.00 0.00 74 1015.5
20260507223603 51 0.0 0.0 0.00 0.00 0.00 74 1015.5
20260507222602 52 0.0 0.0 0.00 0.00 0.00 75 1015.5
20260507222103 52 0.0 0.0 0.00 0.00 0.00 74 1015.5
20260507221102 52 0.0 0.0 0.00 0.00 0.00 75 1015.5
20260507220603 52 0.0 0.0 0.00 0.00 0.00 76 1015.4
20260507215602 52 0.0 0.0 0.00 0.00 0.00 76 1015.4
20260507215103 52 0.0 0.0 0.00 0.00 0.00 77 1015.3
20260507214602 52 0.0 0.0 0.00 0.00 0.00 79 1015.3
20260507213102 52 0.0 0.0 0.00 0.00 0.00 84 1015.1
20260507212602 52 0.0 0.0 0.00 0.00 0.00 87 1015.0
20260507212102 52 0.0 0.0 0.00 0.00 0.00 85 1014.9
20260507211603 52 0.0 0.0 0.00 0.00 0.00 85 1014.8
20260507211102 52 0.0 0.0 0.00 0.00 0.00 84 1014.8
20260507210603 53 0.0 0.0 0.00 0.00 0.00 82 1014.8
20260507205603 53 0.0 0.0 0.00 0.00 0.00 81 1014.7
20260507205103 53 0.0 0.0 0.00 0.00 0.00 77 1014.7
20260507204602 53 0.0 0.0 0.00 0.00 0.00 74 1014.7
20260507204103 53 0.0 0.0 0.00 0.00 0.00 74 1014.5
20260507203602 53 0.0 0.0 0.00 0.00 0.00 74 1014.5
20260507203103 54 0.0 0.0 0.00 0.00 0.00 73 1014.3
20260507202602 54 0.0 0.0 0.00 0.00 0.00 73 1014.2
20260507202103 54 0.0 0.0 0.00 0.00 0.00 72 1014.2
20260507201602 54 0.0 0.0 0.00 0.00 0.00 71 1014.1
20260507201103 54 0.0 0.0 0.00 0.00 0.00 71 1013.9
20260507200602 55 0.0 0.0 0.00 0.00 0.00 68 1013.8
20260507195602 56 0.0 0.0 0.00 0.00 0.00 63 1013.4
20260507195102 56 0.0 0.0 0.00 0.00 0.00 62 1013.3
20260507194603 57 0.0 0.0 0.00 0.00 0.00 58 1013.2
20260507194102 57 0.0 0.0 0.00 0.00 0.00 57 1012.9